Printer-friendly version

IAU Minor Planet Center

Minor Planet Center

MPEC 2004-K72 : 2004 KE17

The following Minor Planet Electronic Circular may be linked-to from your own Web pages, but must not otherwise be redistributed electronically.


Read MPEC 2004-K71 Read MPEC 2004-K73


M.P.E.C. 2004-K72                                Issued 2004 May 30, 00:12 UT

     The Minor Planet Electronic Circulars contain information on unusual
         minor planets and routine data on comets.  They are published
   on behalf of Commission 20 of the International Astronomical Union by the
          Minor Planet Center, Smithsonian Astrophysical Observatory,
                          Cambridge, MA 02138, U.S.A.

         Supported in part by the Steven and Michele Kirsch Foundation
             Prepared using the Tamkin Foundation Computer Network

                              MPC@CFA.HARVARD.EDU
          URL http://cfa-www.harvard.edu/iau/mpc.html  ISSN 1523-6714

                                   2004 KE17

Observations:
     K04K17E* C2004 05 28.21356 13 59 49.17 +22 39 32.2          18.1   EK072704
     K04K17E  C2004 05 28.22241 13 59 46.69 +22 36 23.8          18.2   EK072704
     K04K17E  C2004 05 28.23128 13 59 44.21 +22 33 14.2          18.3   EK072704
     K04K17E  C2004 05 28.24004 13 59 41.79 +22 30 06.6          18.2   EK072704
     K04K17E  C2004 05 28.24880 13 59 39.35 +22 26 58.5          17.9   EK072704
     K04K17E  C2004 05 28.89523 13 57 05.18 +18 24 24.0          17.8 R EK072176
     K04K17E  C2004 05 28.89580 13 57 05.02 +18 24 10.6          17.7 R EK072176
     K04K17E  C2004 05 28.89638 13 57 04.85 +18 23 57.0          17.5 R EK072176
     K04K17E  C2004 05 28.89697 13 57 04.67 +18 23 43.1          17.4 R EK072176
     K04K17E  C2004 05 28.89754 13 57 04.51 +18 23 29.7          17.4 R EK072176
     K04K17E  C2004 05 29.14233 13 56 07.03 +16 45 35.3          17.7 R EK072G90
     K04K17E  C2004 05 29.14375 13 56 06.68 +16 45 01.8          17.5 R EK072G90
     K04K17E  C2004 05 29.14511 13 56 06.23 +16 44 27.8          17.4 R EK072G90
     K04K17E  C2004 05 29.16045 13 56 01.32 +16 38 12.2          17.4   EK072704
     K04K17E  C2004 05 29.16053 13 56 01.24 +16 38 09.0          17.9   EK072704
     K04K17E  C2004 05 29.16879 13 55 58.80 +16 34 48.3          17.6   EK072704
     K04K17E  C2004 05 29.16887 13 55 58.82 +16 34 44.4          17.8   EK072704
     K04K17E  C2004 05 29.16970 13 55 58.52 +16 34 25.2          17.8   EK072704
     K04K17E  C2004 05 29.17848 13 55 55.98 +16 30 49.9          17.7   EK072704
     K04K17E  C2004 05 29.18536 13 55 53.99 +16 27 59.5          17.7   EK072704
     K04K17E  C2004 05 29.18543 13 55 53.91 +16 27 57.8          17.5   EK072704
     K04K17E  C2004 05 29.18721 13 55 53.43 +16 27 14.0          17.9   EK072704
     K04K17E  C2004 05 29.19369 13 55 51.52 +16 24 34.6          17.8   EK072704
     K04K17E  C2004 05 29.19376 13 55 51.49 +16 24 32.8          17.5   EK072704
     K04K17E  C2004 05 29.19600 13 55 50.81 +16 23 37.7          17.6   EK072704
     K04K17E  C2004 05 29.20506 13 55 46.93 +16 19 43.6          18.0 R EK072734
     K04K17E  C2004 05 29.20770 13 55 45.98 +16 18 38.5          17.8 R EK072734
     K04K17E  C2004 05 29.21071 13 55 45.33 +16 17 22.1          17.4 R EK072734
     K04K17E  C2004 05 29.21361 13 55 46.10 +16 16 28.0          17.1 R EK072926
     K04K17E  C2004 05 29.21392 13 55 46.00 +16 16 19.9          17.7 R EK072926
     K04K17E  C2004 05 29.21424 13 55 45.91 +16 16 12.6          17.4 R EK072926
     K04K17E  C2004 05 29.90096 13 52 51.01 +11 19 16.9          17.5 R EK072132
     K04K17E  C2004 05 29.90289 13 52 50.44 +11 18 24.6          17.4 R EK072132
     K04K17E  C2004 05 29.90481 13 52 49.87 +11 17 32.7          17.1 R EK072132
     K04K17E  C2004 05 29.90856 13 52 48.72 +11 15 50.9          17.3 R EK072132

Observer details:
132 Bedoin.  Observer P. Antonini.  0.30-m f/3.3 Schmidt-Cassegrain + CCD.
176 Observatori Astronomic de Consell.  Observers A. Lopez, R. Pacheco,
    J. Forteza.  0.41-m f/4 reflector + CCD.
704 Lincoln Laboratory ETS, New Mexico.  Observers M. Blythe, F. Shelly,
    M. Bezpalko, R. Huber, L. Manguso, D. Torres, R. Kracke, M. McCleary,
    H. Stange, A. Milner.  Measurers J. Stuart, R. Sayer, J. Evans, J. Kommers.
    1.0-m f/2.15 reflector + CCD.
734 Farpoint Observatory.  Observers G. Hug, D. Tibbets, G. Bell, J. Burgardt.
    .3 Meter f/6 Schmidt-Cassegrain + CCD.
926 Tenagra II Observatory.  Observers P. R. Holvorcem, M. Schwartz.  0.81-m
    f/7 Ritchey-Chretien + CCD.
G90 Three Buttes Observatory, Tucson.  Observer G. R. Jones.  0.4-m
    Ritchey-Chretien + CCD.

Orbital elements:
2004 KE17
Epoch 2004 May 15.0 TT = JDT 2453140.5                  MPC
M 357.18231              (2000.0)            P               Q
n   0.21123686     Peri.  175.23615     -0.42754730     +0.79889419
a   2.7922625      Node    68.91682     -0.84365563     -0.18451582
e   0.6210675      Incl.   26.96211     -0.32472832     -0.57247008
P   4.67           H   21.6           G   0.15
From 34 observations 2004 May 28-29.

Ephemeris:
2004 KE17                a,e,i = 2.79, 0.62, 27                  q = 1.0581
Date    TT    R. A. (2000) Decl.     Delta      r     Elong.  Phase     V
2004 05 25    14 11.59   +37 28.1    0.099    1.059   115.4    59.7    18.8
2004 05 26    14 08.13   +33 40.1    0.091    1.059   117.7    57.9    18.6
2004 05 27    14 04.49   +29 11.3    0.084    1.058   120.3    55.7    18.4
2004 05 28    14 00.68   +23 54.6    0.078    1.058   123.3    53.2    18.1
2004 05 29    13 56.66   +17 43.9    0.072    1.058   126.5    50.3    17.9
2004 05 30    13 52.44   +10 35.9    0.068    1.058   129.8    47.4    17.7
2004 05 31    13 47.99   +02 33.4    0.064    1.059   132.9    44.5    17.5
2004 06 01    13 43.30   -06 11.4    0.062    1.059   135.2    42.4    17.3
2004 06 02    13 38.34   -15 16.4    0.062    1.060   136.4    41.3    17.3
2004 06 03    13 33.09   -24 14.2    0.063    1.061   136.1    41.5    17.4
2004 06 04    13 27.54   -32 39.2    0.066    1.062   134.6    42.9    17.5
2004 06 05    13 21.65   -40 14.3    0.070    1.063   132.3    44.9    17.7
2004 06 06    13 15.40   -46 52.1    0.075    1.064   129.7    47.2    17.9
2004 06 07    13 08.76   -52 33.2    0.081    1.066   127.1    49.5    18.1
2004 06 08    13 01.71   -57 22.8    0.088    1.067   124.6    51.5    18.4
2004 06 09    12 54.23   -61 27.8    0.095    1.069   122.4    53.3    18.6
2004 06 10    12 46.28   -64 55.0    0.103    1.071   120.5    54.8    18.8
2004 06 11    12 37.84   -67 50.8    0.111    1.073   118.8    56.0    19.0
2004 06 12    12 28.89   -70 20.5    0.119    1.075   117.3    57.0    19.2
2004 06 13    12 19.40   -72 28.6    0.128    1.078   116.1    57.8    19.4
2004 06 14    12 09.35   -74 18.7    0.137    1.080   115.0    58.4    19.5
2004 06 15    11 58.73   -75 53.6    0.145    1.083   114.0    58.9    19.7
2004 06 16    11 47.52   -77 15.9    0.154    1.086   113.2    59.3    19.8
2004 06 17    11 35.71   -78 27.4    0.163    1.089   112.5    59.5    20.0
2004 06 18    11 23.31   -79 29.7    0.172    1.092   111.9    59.7    20.1
2004 06 19    11 10.32   -80 24.1    0.182    1.096   111.4    59.7    20.2
2004 06 20    10 56.75   -81 11.7    0.191    1.099   110.9    59.7    20.3
2004 06 21    10 42.62   -81 53.5    0.200    1.103   110.6    59.7    20.5
2004 06 22    10 27.97   -82 30.1    0.209    1.106   110.2    59.5    20.6
2004 06 23    10 12.83   -83 02.3    0.219    1.110   109.9    59.4    20.7
2004 06 24    09 57.25   -83 30.6    0.228    1.114   109.7    59.2    20.7
2004 06 25    09 41.28   -83 55.5    0.237    1.118   109.5    59.0    20.8
2004 06 26    09 24.96   -84 17.5    0.246    1.122   109.3    58.7    20.9
2004 06 27    09 08.35   -84 36.8    0.256    1.127   109.2    58.4    21.0
2004 06 28    08 51.51   -84 53.9    0.265    1.131   109.1    58.1    21.1
2004 06 29    08 34.46   -85 09.0    0.274    1.136   109.0    57.8    21.1
2004 06 30    08 17.26   -85 22.3    0.283    1.141   109.0    57.5    21.2
2004 07 01    07 59.94   -85 34.1    0.292    1.145   108.9    57.1    21.3
2004 07 02    07 42.52   -85 44.6    0.302    1.150   108.9    56.7    21.4
2004 07 03    07 25.02   -85 53.9    0.311    1.155   108.9    56.4    21.4
2004 07 04    07 07.43   -86 02.2    0.320    1.161   108.9    56.0    21.5
2004 07 05    06 49.76   -86 09.5    0.329    1.166   108.9    55.6    21.5
2004 07 06    06 31.98   -86 16.1    0.338    1.171   109.0    55.2    21.6
2004 07 07    06 14.08   -86 21.9    0.347    1.177   109.0    54.8    21.7
2004 07 08    05 56.01   -86 26.9    0.356    1.182   109.1    54.4    21.7
2004 07 09    05 37.77   -86 31.4    0.365    1.188   109.2    53.9    21.8
2004 07 10    05 19.31   -86 35.1    0.374    1.194   109.2    53.5    21.8
2004 07 11    05 00.63   -86 38.2    0.383    1.199   109.3    53.1    21.9
2004 07 12    04 41.71   -86 40.6    0.392    1.205   109.4    52.7    21.9
2004 07 13    04 22.59   -86 42.2    0.401    1.211   109.5    52.3    22.0
2004 07 14    04 03.28   -86 43.1    0.410    1.217   109.7    51.8    22.0

Timothy B. Spahr             (C) Copyright 2004 MPC           M.P.E.C. 2004-K72

Read MPEC 2004-K71 Read MPEC 2004-K73


Our Web policy. Index to the CBAT/MPC/ICQ pages.


Valid HTML 4.01!